Regional Weather Roundup
Issued by NWS

Home | Current Version | Previous Version | Graphics & Text | Print | Product List | Glossary On
Versions: 1 2 3 4 5 6 7 8 9 10 11 12 13 14 15 16 17 18 19 20 21 22 23 24 25 26 27 28 29 30 31 32 33 34 35 36 37 38 39 40 41 42 43 44 45 46 47 48 49 50
934
ASUS44 KJAN 010810
RWRMS

MISSISSIPPI HOURLY WEATHER ROUNDUP
NATIONAL WEATHER SERVICE JACKSON MS
300 AM CDT WED APR 01 2015

NOTE: "FAIR: INDICATES FEW OR NO CLOUDS BELOW 12,000 FEET WITH NO
SIGNIFICANT WEATHER AND/OR OBSTRUCTIONS TO VISIBILITY.

MSZ001>002-007>008-010>013-018>021-025>028-034>036-010900-
NORTHWEST MISSISSIPPI

CITY           SKY/WX    TMP DP  RH WIND       PRES   REMARKS
CLARKSDALE       N/A     57  57 100 CALM      29.97S
CLEVELAND      FAIR      60  60 100 SE6       29.97R
GREENWOOD      PTCLDY    59  55  87 N3        29.98R
GREENVILLE     MOCLDY    58  56  93 S8        29.95S
OLIVE BRANCH   PTCLDY    59  59 100 E6        29.98F
OXFORD         FAIR      59  57  94 CALM      29.99F
TUNICA         SUNNY     59  55  88 S5        29.96S
$$

MSZ003>006-009-014>017-022>024-029>033-037>039-010900-
NORTHEAST MISSISSIPPI

CITY           SKY/WX    TMP DP  RH WIND       PRES   REMARKS
COLUMBUS AFB   LGT RAIN  59  59 100 S3        30.02F
CORINTH        FAIR      59  55  88 CALM      29.97R
GOLDN TRIANGLE CLOUDY    63  55  77 NE10G18   30.04R
STARKVILLE     CLOUDY    63  55  77 NE14G22   30.04R
TUPELO         MOCLDY    56  53  90 S6        29.97F
$$

MSZ040-058-010900-
CENTRAL MISSISSIPPI

CITY           SKY/WX    TMP DP  RH WIND       PRES   REMARKS
JACKSON INTL   CLEAR     64  57  78 S5        29.99S
JACKSON HAWKNS CLEAR     66  58  75 SW8       29.99S
MERIDIAN KEY   CLEAR     58  56  93 SW5       29.99S
MERIDIAN NAS   NOT AVBL
RAYMOND        FAIR      66  61  82 MISG      29.98S
VICKSBURG      CLEAR     66  59  78 VRB5      29.98F
$$

MSZ059>079-010900-
SOUTH MISSISSIPPI

CITY           SKY/WX    TMP DP  RH WIND       PRES   REMARKS
BROOKHAVEN       N/A     63  59  88 CALM      30.03F
HATTIESBURG    PTCLDY    65  59  81 W3        30.02S
MCCOMB         PTCLDY    62  59  90 CALM      30.02S
NATCHEZ        CLEAR     63  57  82 S3        30.01S
PINE BELT      PTCLDY    63  55  77 SW5       30.01F
$$

MSZ080>082-010900-
COASTAL MISSISSIPPI

CITY           SKY/WX    TMP DP  RH WIND       PRES   REMARKS
BILOXI         CLEAR     68  65  91 W7        30.02F
PASCAGOULA     CLEAR     66  64  93 SW3       30.02F
GULFPORT       PTCLDY    64  61  90 CALM      30.02F
$$



USA.gov is the U.S. government's official web portal to all federal, state and local government web resources and services.